{"data":{"norad_id":65867,"epoch":"2026-05-25T03:36:15.362784Z","epoch_age_seconds":55896,"freshness":"FRESH","line1":"1 65867U 25223P   26145.15017781  .00020083  00000+0  68820-3 0  9993","line2":"2 65867  53.1600 298.9118 0001332  76.1182 283.9967 15.30207572 35915","mean_motion":15.30207572,"eccentricity":0.0001332,"inclination_deg":53.16,"raan_deg":298.9118,"arg_perigee_deg":76.1182,"mean_anomaly_deg":283.9967,"bstar":0.0006882,"rev_number":3591,"period_min":94.104880040418,"perigee_km":474.27959740123,"apogee_km":476.10532436961,"semimajor_km":6853.3294608854,"source":"CELESTRAK","updated_at":"2026-05-25T13:38:20.974807Z"}}